Volver al catálogo

STARLINK-30959

ActivoComunicacionesVLEO
NORAD 58442·PAYLOAD·🇺🇸 United States

Lanzado Nov 28, 2023 desde Cape Canaveral Space Force Station

Loading…

Próximos Pases (próximas 24 horas)

TLE

ActualizadoSource: CelesTrak SupGP

Época: Sep 15, 2026, 02:37 UTC

1 58442C 23183F   26258.10951389 -.00021180  00000+0 -76687-3 0  2587
2 58442  43.0043  51.5953 0001790 274.0240 205.3012 15.27600654    13

Sigue STARLINK-30959 en tiempo real con AllMySat

Download on the App Store